星链-32471 (STARLINK-32471)

导读

STARLINK-32471是美国星链互联网卫星星座的组成部分,于2024年11月14日由美国发射升空。星链系统旨在为全球提供高速低延迟互联网覆盖,该卫星入轨后将和其他星链卫星组网,补全星座服务能力,服务全球偏远地区网络接入,也为美国军事通信等领域提供支持。

基本信息
目录编号:
61968
目录名称:
STARLINK-32471
国际标识:
2024-210K
轨道中心:
EARTH
卫星名称:
星链-32471
卫星全名:
星链-32471 (STARLINK-32471)
卫星状态:
在轨 (已飞行667 天)
发射日期:
2024-11-14 UTC
国别 :
美国 (US)
星等 :
--
该卫星已列入 空间交会检测服务 Space Conjunction Data Service (SCDS) ,当前飞行风险评估等级: 无高风险
轨道信息
数据来源 国际轨道数据
星历时间: 2026-09-11T14:16:11+0800
1天前
查看轨道信息
半长轴: 6861.145km
偏心率: 0.0001239
轨道倾角: 43.003°
近地点辐角 284.051°
升交点赤经 204.646°
平近点角 76.021°
近地点: 482.157km
远地点: 483.859km
周期: 94.266分钟
每日圈数: 15.275938
详细信息
固有亮度:
5
最大亮度:
2.5
卫星平台:
Starlink V1.0
覆盖范围:
全球
运营商:
太空探索技术公司
运营商所在国:
美国
制造商(研发单位):
太空探索技术公司
制造商所在国:
美国
使用方式:
暂无
卫星简介
Starlink 计划是 SpaceX 推出的全球卫星互联网项目,通过发射低轨道卫星,为全球尤其是偏远地区提供高速、低延迟的互联网服务。自 2019 年起,Starlink 已部署数千颗卫星,旨在缩小全球数字鸿沟,推动互联网普及。该项目还为军事、航空等行业提供通信支持,带来广泛经济效益。
2D轨道图
3D轨道图
轨道高度分析图
轨道倾角分析图
轨道综合分析图
查看轨道综合分析图
交会数据列表
事件ID 空间交会对象 最接近时刻(TCA) 交会距离 交会风险概率(CRP) 交会风险指数(CRI) 操作
CDM_260910-024306-196806-730822
2026-09-10T
02:43:20+0000
0.970 km
远距离
2.30711E-5 中风险 0.62
CDM_260910-044805-637806-196821
2026-09-10T
04:48:15+0000
0.778 km
远距离
1.766384E-5 中风险 0.6
CDM_260910-050206-196806-716421
2026-09-10T
05:02:06+0000
1.404 km
极远距离
6.259574E-6 低风险 0.51
CDM_260913-120804-097506-196822
2026-09-13T
12:08:46+0000
1.850 km
极远距离
2.766984E-6 低风险 0.44
CDM_260909-185006-196806-716421
2026-09-09T
18:50:08+0000
2.130 km
极远距离
1.888418E-6 低风险 0.41
CDM_260910-053805-655806-196821
2026-09-10T
05:38:17+0000
1.914 km
极远距离
1.582338E-6 低风险 0.39
CDM_260910-032706-196806-716421
2026-09-10T
03:27:57+0000
2.360 km
极远距离
1.5203E-6 低风险 0.39
CDM_260914-050906-196806-430521
2026-09-14T
05:09:12+0000
2.477 km
极远距离
1.468228E-6 低风险 0.38
CDM_260910-022705-637806-196821
2026-09-10T
02:27:02+0000
2.548 km
极远距离
6.023612E-7 极低风险 0.31
与全量物体交会距离演化趋势
与全量物体交会风险概率演化趋势